星链-30543 (STARLINK-30543 )

导读

STARLINK-30543是美国太空探索技术公司SpaceX星链星座的卫星,于2023年10月5日发射入轨,属于星链互联网卫星组网的一部分。星链项目旨在构建全球卫星互联网通信网络,该卫星承担着为全球偏远、欠发达区域提供低时延宽带接入服务的任务,依靠低轨部署优势提升网络覆盖范围与信号传输效率。

基本信息
目录编号:
57996
目录名称:
STARLINK-30543
国际标识:
2023-153F
轨道中心:
EARTH
卫星名称:
星链-30543
卫星全名:
星链-30543 (STARLINK-30543 )
卫星状态:
已陨落 最后检测时间 2025-04-21
发射日期:
2023-10-05 UTC
国别 :
美国 (US)
星等 :
--
轨道信息
数据来源 国际轨道数据
星历时间: 2025-04-20T20:52:23+0800
轨道信息已过期425天
半长轴: 6576.515km
偏心率: 0.0003913
轨道倾角: 42.981°
近地点辐角 133.750°
升交点赤经 143.287°
平近点角 356.027°
近地点: 195.806km
远地点: 200.954km
周期: 88.461分钟
每日圈数: 16.278302
详细信息
固有亮度:
5
最大亮度:
0.3
卫星平台:
Starlink v2.0 mini
覆盖范围:
全球
运营商:
太空探索技术公司
运营商所在国:
美国
制造商(研发单位):
太空探索技术公司
制造商所在国:
美国
使用方式:
暂无
卫星简介
星链(Starlink)计划是由太空探索技术公司(SpaceX)提出的一个巨型低轨卫星互联网星座项目,计划在2019年至2024年间在太空搭建由约1.2万颗卫星组成的“星链”网络,其中1584颗将部署在地球上空550千米处的近地轨道,并从2020年开始工作。该卫星仍在工作。